Regional Weather Roundup
Issued by NWS Northern Indiana

Home | Current Version | Previous Version | Graphics & Text | Print | Product List | Glossary On
Versions: 1 2 3 4 5 6 7 8 9 10 11 12 13 14 15 16 17 18 19 20 21 22 23 24 25 26 27 28 29 30 31 32 33 34 35 36 37 38 39 40 41 42 43 44 45 46 47 48 49 50
000
ASUS43 KIWX 290010
RWRIWX

KIWX WEATHER ROUNDUP
NATIONAL WEATHER SERVICE NORTHERN INDIANA
800 PM EDT TUE JUL 28 2015

NOTE: "FAIR" INDICATES FEW OR NO CLOUDS BELOW 12,000 FEET WITH NO
SIGNIFICANT WEATHER AND/OR OBSTRUCTIONS TO VISIBILITY.

* THESE STATIONS ARE NOT UNDER NWS QUALITY CONTROL. THEY ALSO MAY NOT
  REPORT WEATHER SUCH AS PRECIPITATION OR FOG.

INZ001>027-290100-
NORTHERN INDIANA

CITY           SKY/WX    TMP DP  RH WIND       PRES   REMARKS
VALPARAISO     MOSUNNY   86  72  62 S5        29.94R
6HR MIN TEMP:  86; 6HR MAX TEMP:  89;

MICHIGAN CITY* SUNNY     84  70  61 CALM      29.94R
LAPORTE*       SUNNY     87  73  63 S3        29.95R
6HR MIN TEMP:  86; 6HR MAX TEMP:  90;

KNOX*          SUNNY     84  70  61 S5        29.93R
SOUTH BEND     SUNNY     87  69  54 S8        29.95R
6HR MIN TEMP:  87; 6HR MAX TEMP:  90;

ELKHART*       SUNNY     86  66  51 SE8       29.94R
GOSHEN         SUNNY     85  70  60 SE5       29.93S
6HR MIN TEMP:  85; 6HR MAX TEMP:  89;

MONTICELLO*    SUNNY     85  74  69 CALM      29.92R
6HR MIN TEMP:  85; 6HR MAX TEMP:  90;

LOGANSPORT*    SUNNY     86  68  54 CALM      29.93R
ROCHESTER*     SUNNY     88  72  58 SE3       29.94R
WARSAW*        SUNNY     84  72  65 CALM      29.93R
ANGOLA*        SUNNY     84  68  58 SE5       29.95S
FORT WAYNE     MOCLDY    86  68  54 SE5       29.94S
6HR MIN TEMP:  86; 6HR MAX TEMP:  90;

HUNTINGTON*    SUNNY     85  71  61 SE7       29.92S
6HR MIN TEMP:  85; 6HR MAX TEMP:  88;

PERU/GRISSOM   SUNNY     86  74  66 CALM      29.92R
6HR MIN TEMP:  86; 6HR MAX TEMP:  89;

MARION*        MOSUNNY   84  71  63 SE6       29.93S
6HR MIN TEMP:  52; 6HR MAX TEMP:  89;


$$
INZ028>050-290100-
CENTRAL INDIANA

CITY           SKY/WX    TMP DP  RH WIND       PRES   REMARKS
LAFAYETTE      SUNNY     83  74  74 SE3       29.91R
6HR MIN TEMP:  83; 6HR MAX TEMP:  90;

KOKOMO*        SUNNY     84  73  70 SE3       29.93R
6HR MIN TEMP:  84; 6HR MAX TEMP:  91;

MUNCIE*        PTCLDY    84  71  65 SE7       29.93F
6HR MIN TEMP:  83; 6HR MAX TEMP:  89; 6HR PCP: TRACE;

INDIANAPOLIS   PTSUNNY   86  72  62 E6        29.92R
6HR MIN TEMP:  86; 6HR MAX TEMP:  92;


$$
MIZ043>046-050>051-056>058-064>065-071>073-077>080-290100-
SOUTHWEST LOWER MICHIGAN

CITY           SKY/WX    TMP DP  RH WIND       PRES   REMARKS
BATTLE CREEK   SUNNY     85  63  47 S3        29.95F
6HR MIN TEMP:  85; 6HR MAX TEMP:  89;

BENTON HARBOR  MOSUNNY   86  71  60 SE5       29.93R
6HR MIN TEMP:  85; 6HR MAX TEMP:  90;

COLDWATER*     SUNNY     80  64  57 E6        29.95S
6HR MIN TEMP:  80; 6HR MAX TEMP:  86;

HILLSDALE*     PTCLDY    83  67  57 CALM      29.97S
6HR MIN TEMP:  83; 6HR MAX TEMP:  87;

HOLLAND        PTSUNNY   85  68  56 S6        29.94R
6HR MIN TEMP:  85; 6HR MAX TEMP:  91;

GRAND RAPIDS   PTSUNNY   84  65  52 SE3       29.95R
6HR MIN TEMP:  84; 6HR MAX TEMP:  90;

KALAMAZOO      SUNNY     84  65  52 CALM      29.95R
6HR MIN TEMP:  84; 6HR MAX TEMP:  90;

STURGIS*       SUNNY     84  66  54 SE3       29.94S
THREE RIVERS*  FAIR      84  66  55 SE3       29.94R
6HR MIN TEMP:  84; 6HR MAX TEMP:  87;


$$
OHZ001>008-015>018-024>025-290100-
NORTHWEST OHIO

CITY           SKY/WX    TMP DP  RH WIND       PRES   REMARKS
WAUSEON*         N/A     82  68  61 E6        29.95
DEFIANCE       MOCLDY    87  64  46 E5        29.94F
6HR MIN TEMP:  87; 6HR MAX TEMP:  92;

FINDLAY        MOCLDY    85  66  53 E6        29.95S
6HR MIN TEMP:  85; 6HR MAX TEMP:  91;

TOLEDO EXPRESS CLOUDY    83  63  50 E7        29.95S
6HR MIN TEMP:  83; 6HR MAX TEMP:  90;

TOLEDO METCALF MOCLDY    82  64  54 E6        29.97R
6HR MIN TEMP:  82; 6HR MAX TEMP:  90;

LIMA           MOCLDY    82  69  64 NE3       29.96S
6HR MIN TEMP:  82; 6HR MAX TEMP:  89;


$$
AND FOR LAKE MICHIGAN COASTAL AND OPEN LAKE BUOY OBSERVATIONS

STATION/POSITION TEMP    WIND        PRES    VSBY  WAVE
                 AIR SEA DIR/SP/G                  HT/PER
                 (F)     (DEG/KT/KT) (MB)    (MI)  (FT/S)
CALUMET HARBOR    83      50/  1/  6   N/A
MICHIGAN CITY     86     140/  9/ 13   N/A
BURNS HARBOR      89     160/  6/ 12 1012.9R
SAINT JOSEPH      90      CALM  /  4 1013.9R
4 MI NW BRIDGMAN  81 76  220/  6/  6   N/A           1
MICHIGAN CITY     82 76  180/  6/  6   N/A           1

$$
&&



USA.gov is the U.S. government's official web portal to all federal, state and local government web resources and services.